Big Rapids, MI

12:06 AM EDT on June 25, 2017 (GMT -0400)
Roben-Hood

Weather History for KRQB - September, 2011

Change the Weather History Date:

Sunday, September 25, 2011

  Actual Average Record
Temperature  
Mean Temperature 58 °F -  
Max Temperature 64 °F 65 °F 78 °F (1973)
Min Temperature 51 °F 42 °F 28 °F (2000)
Degree Days  
Heating Degree Days 8    
Growing Degree Days 8 (Base 50)    
Moisture  
Dew Point 53 °F    
Average Humidity 86    
Maximum Humidity 100    
Minimum Humidity 68    
Precipitation  
Precipitation 0.00 in - - ()
Sea Level Pressure  
Sea Level Pressure 30.00 in    
Wind  
Wind Speed 4 mph (ESE)    
Max Wind Speed 12 mph    
Max Gust Speed 20 mph    
Visibility 9 miles    
Events Rain    
Averages and records for this station are not official NWS values.
T = Trace of Precipitation, MM = Missing Value Source: NWS Daily Summary

Daily Weather History Graph

Daily Weather History Graph

Search for Another Location

Airport or City:

Trip Planner

Search our weather history database for the weather conditions in past years. The results will help you decide how hot, cold, wet, or windy it might be!

Date:

Astronomy

Sep. 25, 2011 Rise Set
Actual Time 7:32 AM EDT 7:34 PM EDT
Civil Twilight 7:03 AM EDT 8:02 PM EDT
Nautical Twilight 6:30 AM EDT 8:36 PM EDT
Astronomical Twilight 5:55 AM EDT 9:10 PM EDT
Moon 5:15 AM EDT 6:16 PM EDT
Length of Visible Light 12h 59m
Length of Day
12h 02m
Waning Crescent, 5% of the Moon is Illuminated
Sep 25
Waning Crescent
Sep 27
New
Oct 3
First Quarter
Oct 11
Full
Oct 19
Last Quarter

Hourly Weather History & Observations

Time (EDT) Temp. Dew Point Humidity Pressure Visibility Wind Dir Wind Speed Gust Speed Precip Events Conditions
12:13 AM 53.6 °F 50.0 °F 88% 30.05 in 10.0 mi SSE 4.6 mph - N/A   Overcast
12:33 AM 53.6 °F 50.0 °F 88% 30.05 in 10.0 mi ESE 3.5 mph - N/A   Mostly Cloudy
12:54 AM 53.6 °F 50.0 °F 88% 30.05 in 10.0 mi Calm Calm - N/A   Mostly Cloudy
1:13 AM 53.6 °F 50.0 °F 88% 30.05 in 10.0 mi ESE 3.5 mph - N/A   Overcast
1:34 AM 53.6 °F 50.0 °F 88% 30.04 in 10.0 mi East 4.6 mph - N/A   Mostly Cloudy
1:54 AM 51.8 °F 50.0 °F 94% 30.04 in 10.0 mi ESE 3.5 mph - N/A   Mostly Cloudy
2:13 AM 51.8 °F 50.0 °F 94% 30.04 in 10.0 mi WNW 4.6 mph - N/A   Scattered Clouds
2:34 AM 51.8 °F 50.0 °F 94% 30.04 in 10.0 mi Calm Calm - N/A   Mostly Cloudy
2:53 AM 51.8 °F 50.0 °F 94% 30.04 in 10.0 mi Calm Calm - N/A   Overcast
3:13 AM 51.8 °F 50.0 °F 94% 30.04 in 10.0 mi Calm Calm - N/A   Overcast
3:34 AM 51.8 °F 50.0 °F 94% 30.04 in 10.0 mi Calm Calm - N/A   Overcast
3:53 AM 51.8 °F 50.0 °F 94% 30.04 in 10.0 mi Calm Calm - N/A   Overcast
4:13 AM 51.8 °F 50.0 °F 94% 30.03 in 10.0 mi East 3.5 mph - N/A   Overcast
4:34 AM 51.8 °F 50.0 °F 94% 30.03 in 10.0 mi East 3.5 mph - N/A   Overcast
4:53 AM 51.8 °F 50.0 °F 94% 30.03 in 10.0 mi ESE 3.5 mph - N/A   Scattered Clouds
5:13 AM 51.8 °F 50.0 °F 94% 30.03 in 10.0 mi ESE 3.5 mph - N/A   Scattered Clouds
5:34 AM 51.8 °F 50.0 °F 94% 30.03 in 10.0 mi South 4.6 mph - N/A   Mostly Cloudy
5:53 AM 51.8 °F 50.0 °F 94% 30.03 in 10.0 mi East 5.8 mph - N/A   Overcast
6:13 AM 51.8 °F 50.0 °F 94% 30.03 in 10.0 mi East 8.1 mph - N/A   Overcast
6:34 AM 51.8 °F 50.0 °F 94% 30.02 in 10.0 mi East 5.8 mph - N/A   Scattered Clouds
7:14 AM 51.8 °F 50.0 °F 94% 30.03 in 10.0 mi ESE 4.6 mph - N/A   Mostly Cloudy
7:34 AM 51.8 °F 50.0 °F 94% 30.03 in 10.0 mi ESE 4.6 mph - N/A   Mostly Cloudy
7:53 AM 51.8 °F 50.0 °F 94% 30.03 in 10.0 mi SE 3.5 mph - N/A   Overcast
8:14 AM 51.8 °F 50.0 °F 94% 30.04 in 10.0 mi Calm Calm - N/A   Overcast
8:33 AM 53.6 °F 50.0 °F 88% 30.04 in 10.0 mi Calm Calm - N/A   Overcast
8:53 AM 53.6 °F 50.0 °F 88% 30.03 in 10.0 mi Calm Calm - N/A   Overcast
9:14 AM 55.4 °F 50.0 °F 82% 30.03 in 10.0 mi East 8.1 mph - N/A   Mostly Cloudy
9:34 AM 57.2 °F 50.0 °F 77% 30.03 in 10.0 mi ESE 9.2 mph - N/A   Overcast
9:53 AM 57.2 °F 50.0 °F 77% 30.04 in 10.0 mi East 11.5 mph 19.6 mph N/A   Mostly Cloudy
10:14 AM 57.2 °F 51.8 °F 82% 30.03 in 10.0 mi East 8.1 mph 16.1 mph N/A   Overcast
10:33 AM 59.0 °F 51.8 °F 77% 30.04 in 10.0 mi ESE 5.8 mph - N/A   Mostly Cloudy
10:53 AM 59.0 °F 51.8 °F 77% 30.03 in 10.0 mi ESE 8.1 mph - N/A   Overcast
11:14 AM 59.0 °F 51.8 °F 77% 30.03 in 10.0 mi ESE 9.2 mph - N/A   Overcast
11:33 AM 59.0 °F 51.8 °F 77% 30.03 in 10.0 mi East 8.1 mph - N/A   Overcast
11:53 AM 59.0 °F 53.6 °F 82% 30.02 in 10.0 mi ESE 5.8 mph - N/A   Overcast
12:14 PM 59.0 °F 53.6 °F 82% 30.01 in 10.0 mi East 4.6 mph - N/A   Overcast
12:33 PM 60.8 °F 53.6 °F 77% 30.01 in 10.0 mi East 3.5 mph - N/A   Overcast
12:54 PM 60.8 °F 53.6 °F 77% 30.00 in 10.0 mi East 4.6 mph - N/A   Overcast
1:13 PM 60.8 °F 53.6 °F 77% 30.00 in 10.0 mi ESE 4.6 mph - N/A   Overcast
1:33 PM 62.6 °F 53.6 °F 72% 30.00 in 10.0 mi ESE 4.6 mph - N/A   Overcast
1:54 PM 62.6 °F 53.6 °F 72% 29.99 in 10.0 mi ESE 6.9 mph - N/A   Overcast
2:13 PM 62.6 °F 53.6 °F 72% 29.98 in 10.0 mi ESE 9.2 mph - N/A   Overcast
2:33 PM 62.6 °F 53.6 °F 72% 29.98 in 10.0 mi ESE 6.9 mph - N/A   Overcast
2:54 PM 62.6 °F 53.6 °F 72% 29.98 in 10.0 mi ESE 5.8 mph - N/A   Overcast
3:13 PM 62.6 °F 53.6 °F 72% 29.97 in 10.0 mi East 5.8 mph - N/A   Overcast
3:34 PM 64.4 °F 53.6 °F 68% 29.96 in 10.0 mi East 10.4 mph 16.1 mph N/A   Mostly Cloudy
3:54 PM 64.4 °F 53.6 °F 68% 29.96 in 10.0 mi SE 10.4 mph 18.4 mph N/A   Mostly Cloudy
4:13 PM 64.4 °F 53.6 °F 68% 29.96 in 10.0 mi SE 4.6 mph - N/A   Overcast
5:13 PM 64.4 °F 53.6 °F 68% 29.94 in 10.0 mi SE 3.5 mph - N/A   Overcast
5:34 PM 64.4 °F 53.6 °F 68% 29.94 in 10.0 mi SE 3.5 mph - N/A   Overcast
5:53 PM 64.4 °F 55.4 °F 73% 29.94 in 10.0 mi Calm Calm - N/A   Overcast
6:53 PM 60.8 °F 59.0 °F 94% 29.94 in 7.0 mi Calm Calm - N/A   Overcast
7:13 PM 60.8 °F 59.0 °F 94% 29.95 in 5.0 mi Calm Calm - N/A Rain Light Rain
7:34 PM 60.8 °F 59.0 °F 94% 29.94 in 5.0 mi Calm Calm - N/A   Overcast
7:53 PM 60.8 °F 59.0 °F 94% 29.93 in 5.0 mi Calm Calm - N/A   Overcast
8:34 PM 59.0 °F 59.0 °F 100% 29.93 in 7.0 mi Calm Calm - N/A   Overcast
8:53 PM 59.0 °F 59.0 °F 100% 29.93 in 5.0 mi Calm Calm - N/A   Overcast
9:13 PM 59.0 °F 59.0 °F 100% 29.94 in 5.0 mi Calm Calm - N/A   Mostly Cloudy
9:34 PM 59.0 °F 59.0 °F 100% 29.93 in 5.0 mi Calm Calm - N/A   Overcast
9:53 PM 59.0 °F 57.2 °F 94% 29.93 in 7.0 mi ENE 3.5 mph - N/A   Overcast
10:13 PM 59.0 °F 59.0 °F 100% 29.93 in 7.0 mi Calm Calm - N/A   Overcast
10:34 PM 59.0 °F 59.0 °F 100% 29.91 in 7.0 mi ENE 5.8 mph - N/A   Overcast
10:53 PM 60.8 °F 59.0 °F 94% 29.91 in 10.0 mi East 3.5 mph - N/A   Overcast
11:13 PM 60.8 °F 59.0 °F 94% 29.92 in 10.0 mi East 3.5 mph - N/A   Overcast
11:34 PM 59.0 °F 59.0 °F 100% 29.91 in 10.0 mi SW 5.8 mph - N/A   Overcast
11:53 PM 59.0 °F 59.0 °F 100% 29.91 in 7.0 mi Calm Calm - N/A   Overcast